Fort Lauderdale, FL (33340)

3:32 AM EDT on May 30, 2015 (GMT -0400)
Mills Pond Park Area | | Change Station
CLOSE
Current Station
Personal Weather Station
Location: Wilton Manors, FL
Elevation: 10 ft
Nearby Weather Stations

Elev 10 ft 26.16 °N, 80.16 °W | Updated 38 seconds ago

Partly Cloudy
Partly Cloudy
77.2 °F
Feels Like 79 °F
N
0.0
Wind Variable Wind from North
Gusts 0.0 mph

Today
High -- | Low -- °F
--% Chance of Precip.
Yesterday
High -- | Low -- °F
Precip. -- in
6:28 AM 8:07 PM
Waxing Gibbous, 89% visible
Pressure 30.03 in
Visibility 10.0 miles
Clouds Clear
Heat Index 79 °F
Dew Point 66 °F
Humidity 68%
Rainfall 0.00 in
Snow Depth Not available.
UV 0 out of 12
Pollen 3.80 out of 12
Air Quality Not available.
Flu Activity Sporadic
METAR KFXE 300653Z 09006KT 10SM CLR 26/21 A3002 RMK AO2 SLP168 T02560206

More Conditions Fewer Conditions

Pressure 30.03 in
Visibility 10.0 miles
Clouds Clear
Heat Index 79 °F
Dew Point 66 °F
Humidity 68%
Rainfall 0.00 in
Snow Depth Not available.
UV 0 out of 12
Pollen 3.80 out of 12
Air Quality Not available.
Flu Activity Sporadic
METAR KFXE 300653Z 09006KT 10SM CLR 26/21 A3002 RMK AO2 SLP168 T02560206

More Conditions Fewer Conditions

10-Day Weather Forecast

Almanac

Astronomy

May. 30, 2015 Rise Set
Actual Time
Civil Twilight
Nautical Twilight
Astronomical Twilight
Moon
Length of Visible Light
Length of Day
Tomorrow will be .
, % of the Moon is Illuminated

Today's Extremes

State Highs State Lows

Community

WunderPhotos

Upload Photos

1,825,470 photos uploaded!

WunderBlogs® & News

Nearby

Air Quality

  Air Quality AQ Index Pollutant
Not available.

Snow Depth

Station Depth Elevation

Earthquake Activity

City Distance Mag. Time & Date
Minimum magnitude displayed is 2.5.

Coastal Water Temperatures

Place Temperature

Stations

Nearby Weather Stations

Station Location Temp. Windchill Dew Point Humidity Wind Precip. Elev Updated Type